User: anonymous   Login
Location: Banff
(51.1667°N, 115.5667°W)
Time: 15:12:24
(UTC+00:00)
Language:

Tiros 1 - Orbit

View from above orbital plane
View from above orbital plane
View from above satellite
View from above satellite

Ground track
Ground track

The orbit data is extracted from the following two-line orbital elements,

1    29U 60002B   20330.55776395 -.00000068  00000-0  20835-4 0  9991
2    29  48.3799 268.3015 0024125 203.1607 156.8219 14.74385999242437
Epoch (UTC): 25 November 2020 13:23:10
Eccentricity: 0.0024125
inclination: 48.3799°
perigee height: 630 km
apogee height: 664 km
right ascension of ascending node: 268.3015°
argument of perigee: 203.1607°
revolutions per day: 14.74385999
mean anomaly at epoch: 156.8219°
orbit number at epoch: 24243

The dashed part of the orbit path shows where the satellite is in the earth's shadow,  

DLR